G4RHR Weather Reports


time (UTC)temp
C
wind
direction
speed
KPH
gust
KPH
rain 1hr
cm
rain 24hr
cm
rain mn
cm
humidity
%
barometer
mb
20260510130301 13 47 16.1 27.4 0.00 0.00 0.00 64 1015.4
20260510125400 13 50 16.1 27.4 0.00 0.00 0.00 63 1015.5
20260510124501 13 46 17.7 29.0 0.00 0.00 0.00 61 1015.6
20260510123600 13 50 17.7 32.2 0.00 0.00 0.00 60 1015.6
20260510122701 13 41 19.3 35.4 0.00 0.00 0.00 60 1015.7
20260510121800 13 35 19.3 37.0 0.00 0.00 0.00 62 1015.7
20260510120902 13 32 16.1 35.4 0.00 0.00 0.00 63 1015.8
20260510120210 12 39 16.1 35.4 0.00 0.00 0.00 65 1015.9
20260510115102 12 33 14.5 29.0 0.00 0.00 0.00 67 1016.0
20260510114201 12 30 14.5 29.0 0.00 0.00 0.00 67 1015.9
20260510113300 12 29 16.1 32.2 0.00 0.00 0.00 68 1016.0
20260510112609 12 42 16.1 29.0 0.00 0.00 0.00 69 1016.1
20260510111503 12 43 16.1 30.6 0.00 0.00 0.00 70 1016.1
20260510110602 12 35 16.1 32.2 0.00 0.00 0.00 70 1016.1
20260510105700 12 45 16.1 27.4 0.00 0.00 0.00 69 1016.2
20260510104801 12 46 14.5 29.0 0.00 0.00 0.00 69 1016.3
20260510103901 12 49 16.1 27.4 0.00 0.00 0.00 69 1016.3
20260510103214 12 50 14.5 25.7 0.00 0.00 0.00 70 1016.3
20260510102100 12 50 12.9 24.1 0.00 0.00 0.00 71 1016.5
20260510101200 12 49 14.5 27.4 0.00 0.00 0.00 71 1016.5
20260510100303 12 57 14.5 32.2 0.00 0.00 0.00 71 1016.4
20260510095406 12 61 17.7 30.6 0.00 0.00 0.00 69 1016.6
20260510094501 12 53 12.9 24.1 0.00 0.00 0.00 70 1016.5
20260510093600 12 47 16.1 29.0 0.00 0.00 0.00 70 1016.5
20260510092700 12 48 17.7 29.0 0.00 0.00 0.00 70 1016.6
20260510091801 12 48 16.1 27.4 0.00 0.00 0.00 71 1016.8
20260510090901 12 46 16.1 29.0 0.00 0.00 0.00 73 1016.7
20260510090000 12 47 16.1 29.0 0.00 0.00 0.00 73 1016.7
20260510085103 12 48 16.1 33.8 0.00 0.00 0.00 73 1016.7
20260510084200 12 47 16.1 25.7 0.00 0.00 0.00 72 1016.7
20260510083514 12 52 16.1 30.6 0.00 0.00 0.00 72 1016.7
20260510082401 12 48 14.5 30.6 0.00 0.00 0.00 73 1016.7
20260510081714 12 40 14.5 30.6 0.00 0.00 0.00 73 1016.7
20260510080600 12 42 16.1 33.8 0.00 0.00 0.00 74 1016.6
20260510075913 12 46 16.1 33.8 0.00 0.00 0.00 75 1016.6
20260510074801 12 42 16.1 29.0 0.00 0.00 0.00 75 1016.5
20260510073901 12 43 16.1 29.0 0.00 0.00 0.00 75 1016.6
20260510073000 12 37 14.5 27.4 0.00 0.00 0.00 76 1016.6
20260510072100 12 43 12.9 27.4 0.00 0.00 0.00 79 1016.7
20260510071200 12 52 16.1 27.4 0.00 0.00 0.00 79 1016.9
20260510070512 12 46 17.7 30.6 0.00 0.00 0.00 79 1016.7
20260510065403 11 38 14.5 25.7 0.00 0.00 0.00 80 1016.6
20260510064503 11 44 12.9 25.7 0.00 0.00 0.00 82 1016.7
20260510063600 11 48 11.3 20.9 0.00 0.00 0.00 83 1016.6
20260510062700 11 47 12.9 27.4 0.00 0.00 0.00 83 1016.4
20260510061803 11 45 12.9 24.1 0.00 0.00 0.00 83 1016.3
20260510061111 11 45 12.9 24.1 0.00 0.00 0.00 84 1016.4
20260510060000 10 39 12.9 24.1 0.00 0.00 0.00 86 1016.4
20260510055102 10 40 12.9 27.4 0.00 0.00 0.00 86 1016.3
20260510054200 10 38 12.9 22.5 0.00 0.00 0.00 87 1016.2
20260510053511 10 40 9.7 22.5 0.00 0.00 0.00 87 1016.2
20260510052401 10 38 11.3 20.9 0.00 0.00 0.00 88 1016.3
20260510051500 10 37 11.3 22.5 0.00 0.00 0.00 88 1016.2
20260510050601 10 37 11.3 22.5 0.00 0.00 0.00 88 1016.3
20260510045701 10 13 9.7 20.9 0.00 0.00 0.00 89 1016.2
20260510045012 10 360 9.7 24.1 0.00 0.00 0.00 90 1016.4
20260510043900 9 360 9.7 20.9 0.00 0.00 0.00 90 1016.4
20260510043212 9 360 8.0 20.9 0.00 0.00 0.00 91 1016.5
20260510042101 9 360 8.0 16.1 0.00 0.00 0.00 90 1016.6
20260510041201 9 360 6.4 17.7 0.00 0.00 0.00 90 1016.7
20260510040300 9 360 6.4 17.7 0.00 0.03 0.00 90 1016.7
20260510035401 9 360 8.0 17.7 0.00 0.03 0.00 90 1016.7
20260510034500 9 360 8.0 20.9 0.00 0.03 0.00 91 1016.6
20260510033811 9 360 11.3 24.1 0.00 0.03 0.00 91 1016.6
20260510032702 9 360 8.0 24.1 0.00 0.03 0.00 91 1016.7
20260510032016 9 360 11.3 25.7 0.00 0.03 0.00 92 1016.6
20260510030901 9 360 9.7 24.1 0.00 0.03 0.00 92 1016.6
20260510030000 9 360 9.7 19.3 0.00 0.03 0.00 92 1016.6
20260510025101 9 360 8.0 19.3 0.00 0.03 0.00 92 1016.7
20260510024201 9 360 6.4 16.1 0.00 0.03 0.00 91 1016.8
20260510023301 9 360 8.0 20.9 0.00 0.03 0.00 92 1016.9
20260510022400 9 360 9.7 22.5 0.00 0.03 0.00 92 1016.9
20260510021501 9 360 8.0 17.7 0.00 0.03 0.00 92 1017.1
20260510020600 9 360 6.4 16.1 0.00 0.03 0.00 92 1017.1
20260510015912 9 360 8.0 20.9 0.00 0.03 0.00 93 1017.1
20260510014801 9 360 8.0 16.1 0.00 0.03 0.00 93 1017.0
20260510013901 9 360 6.4 16.1 0.00 0.03 0.00 93 1016.9
20260510013001 9 360 6.4 17.7 0.00 0.03 0.00 93 1016.8
20260510012103 9 360 6.4 14.5 0.00 0.03 0.00 92 1016.7
20260510011200 9 360 6.4 16.1 0.00 0.03 0.00 93 1016.9
20260510010301 9 360 6.4 14.5 0.00 0.03 0.00 92 1016.8
20260510005400 10 360 6.4 14.5 0.00 0.03 0.00 92 1016.9
20260510004501 10 360 6.4 12.9 0.00 0.03 0.00 92 1017.0
20260510003601 10 360 4.8 12.9 0.00 0.03 0.00 92 1017.1
20260510002700 10 360 4.8 9.7 0.00 0.03 0.00 92 1017.2
20260510001801 10 360 4.8 16.1 0.00 0.03 0.00 92 1017.2
20260510000900 10 360 6.4 12.9 0.00 0.03 0.00 92 1017.2
20260510000001 10 360 4.8 12.9 0.00 0.03 0.00 92 1017.2
20260509235101 10 360 6.4 14.5 0.00 0.03 0.03 92 1017.2
20260509234412 10 360 6.4 16.1 0.00 0.03 0.03 92 1017.1
20260509233300 10 360 6.4 14.5 0.00 0.03 0.03 91 1017.2
20260509232400 10 360 6.4 16.1 0.00 0.03 0.03 91 1017.1
20260509231501 10 360 6.4 12.9 0.00 0.03 0.03 90 1017.1
20260509230601 10 360 6.4 14.5 0.00 0.03 0.03 90 1017.2
20260509225701 10 360 6.4 16.1 0.00 0.03 0.03 89 1017.2
20260509224805 10 360 4.8 9.7 0.00 0.03 0.03 89 1017.3
20260509223900 10 360 3.2 6.4 0.00 0.03 0.03 88 1017.4
20260509223000 10 360 3.2 6.4 0.00 0.03 0.03 88 1017.4
20260509222313 10 360 3.2 6.4 0.00 0.03 0.03 88 1017.3
20260509221201 10 360 6.4 9.7 0.00 0.03 0.03 87 1017.1
20260509220513 11 360 6.4 9.7 0.00 0.03 0.03 87 1017.1
20260509215403 11 29 4.8 9.7 0.00 0.03 0.03 87 1017.1
20260509214500 11 31 4.8 11.3 0.00 0.03 0.03 86 1017.2
20260509213600 11 40 4.8 8.0 0.00 0.03 0.03 86 1017.1
20260509212701 11 45 6.4 14.5 0.00 0.03 0.03 86 1017.2
20260509211801 11 50 4.8 12.9 0.00 0.03 0.03 85 1017.2
20260509210900 11 38 4.8 9.7 0.00 0.03 0.03 84 1017.1
20260509210001 11 49 4.8 8.0 0.00 0.03 0.03 83 1017.0
20260509205101 11 47 4.8 12.9 0.00 0.03 0.03 82 1016.9
20260509204200 11 47 6.4 14.5 0.00 0.03 0.03 82 1016.9
20260509203511 12 45 6.4 14.5 0.00 0.03 0.03 81 1016.9
20260509202400 12 45 6.4 12.9 0.00 0.03 0.03 78 1016.7
20260509201505 12 50 6.4 12.9 0.00 0.03 0.03 76 1016.7
20260509200601 12 51 6.4 14.5 0.00 0.03 0.03 75 1016.8
20260509195703 12 50 6.4 16.1 0.00 0.03 0.03 74 1016.7
20260509194801 13 48 6.4 14.5 0.00 0.03 0.03 73 1016.8
20260509193900 13 49 6.4 12.9 0.00 0.03 0.03 71 1016.7
20260509193000 13 45 6.4 11.3 0.00 0.03 0.03 68 1016.7
20260509192100 13 52 4.8 14.5 0.00 0.03 0.03 65 1016.6
20260509191413 14 61 4.8 14.5 0.00 0.03 0.03 64 1016.5
20260509190301 14 54 8.0 14.5 0.00 0.03 0.03 62 1016.5
20260509185400 15 59 8.0 16.1 0.00 0.03 0.03 60 1016.5
20260509184500 15 59 6.4 14.5 0.00 0.03 0.03 58 1016.3
20260509183601 16 61 8.0 16.1 0.00 0.03 0.03 57 1016.3
20260509182700 16 58 9.7 17.7 0.00 0.03 0.03 54 1016.2
20260509181803 17 60 8.0 19.3 0.00 0.03 0.03 53 1016.0
20260509180900 17 59 8.0 17.7 0.00 0.03 0.03 56 1016.0
20260509180211 17 68 8.0 16.1 0.00 0.03 0.03 56 1016.0
20260509175100 17 83 8.0 16.1 0.00 0.03 0.03 61 1016.2
20260509174200 18 85 9.7 16.1 0.00 0.03 0.03 60 1016.3
20260509173301 18 88 9.7 16.1 0.00 0.03 0.03 59 1016.3
20260509172400 18 92 9.7 17.7 0.00 0.03 0.03 56 1016.4
20260509171502 18 90 9.7 17.7 0.00 0.03 0.03 56 1016.5
20260509170603 18 92 9.7 16.1 0.00 0.03 0.03 57 1016.5
20260509165701 19 97 8.0 16.1 0.00 0.03 0.03 56 1016.5
20260509164801 19 106 4.8 16.1 0.00 0.03 0.03 56 1016.6
20260509163901 19 95 6.4 16.1 0.00 0.03 0.03 56 1016.6
20260509163001 19 93 8.0 17.7 0.00 0.03 0.03 53 1016.7
20260509162101 19 95 11.3 19.3 0.00 0.03 0.03 53 1016.5
20260509161409 19 94 11.3 24.1 0.00 0.03 0.03 46 1016.6
20260509160300 19 89 11.3 19.3 0.00 0.03 0.03 44 1016.6
20260509155400 19 95 11.3 20.9 0.00 0.03 0.03 43 1016.4
20260509154711 19 94 12.9 25.7 0.00 0.03 0.03 45 1016.3
20260509153814 19 91 11.3 20.9 0.00 0.03 0.03 44 1016.3
20260509152911 19 82 9.7 22.5 0.00 0.03 0.03 45 1016.3
20260509152013 19 79 9.7 19.3 0.00 0.03 0.03 41 1016.1
20260509151111 19 78 11.3 20.9 0.00 0.03 0.03 39 1016.1
20260509150001 19 76 9.7 20.9 0.00 0.03 0.03 41 1015.9
20260509145100 19 78 11.3 24.1 0.00 0.03 0.03 39 1016.1
20260509144203 19 78 11.3 20.9 0.00 0.03 0.03 40 1016.2
20260509143301 19 83 12.9 25.7 0.00 0.03 0.03 44 1016.3
20260509142403 19 83 12.9 24.1 0.00 0.03 0.03 43 1016.3
20260509141710 19 77 12.9 24.1 0.00 0.03 0.03 46 1016.4
20260509140601 19 79 12.9 22.5 0.00 0.03 0.03 46 1016.4
20260509135700 20 90 12.9 24.1 0.00 0.03 0.03 43 1016.6
20260509135012 20 94 12.9 25.7 0.00 0.03 0.03 44 1016.6
20260509133901 20 94 12.9 24.1 0.00 0.03 0.03 44 1016.8
20260509133000 20 89 12.9 22.5 0.00 0.03 0.03 42 1016.8
20260509132314 20 83 12.9 22.5 0.00 0.03 0.03 43 1016.8
20260509131200 20 91 14.5 24.1 0.00 0.03 0.03 42 1016.9